Wind_Speed
26 26 27 27 28 29 28 29 30 29 31 22 24 20 17 15 15 16 16 16 15 16 14 12 9 7 5 1 8 11 8 7 8 6 6 5 6 4 8 5 11 21 12 11 10 12 13
26 27 27 28 28 28 29 29 29 31 30 22 16 20 17 17 14 16 16 16 16 15 15 12 9 6 1 7 5 7 8 8 7 6 6 6 7 3 7 6 9 9 16 7 10 11 4
26 27 28 28 29 29 28 29 30 30 28 22 19 22 22 17 13 15 17 17 17 13 14 11 9 7 3 11 6 10 12 7 6 5 3 9 7 2 5 4 14 18 10 8 6 6 6
26 27 28 27 27 29 30 30 30 30 28 26 27 30 26 14 11 14 17 16 16 14 11 8 7 3 5 8 9 9 7 5 3 8 10 13 8 5 9 3 3 7 6 7 2 12 8
27 27 28 28 28 28 29 29 30 30 31 29 28 31 19 13 10 10 15 17 15 13 9 7 4 3 7 4 6 8 8 4 8 10 9 8 3 3 3 4 4 7 2 7 2 12 10
26 26 27 28 29 29 28 30 32 33 32 33 31 32 21 14 8 8 12 15 15 9 5 4 3 2 5 3 4 8 5 4 4 7 4 4 4 2 3 5 5 6 5 3 4 2 14
26 26 26 27 28 28 29 30 31 31 32 34 34 37 19 11 6 6 8 4 2 3 4 7 6 4 1 1 2 1 0 1 3 4 2 3 2 3 2 7 3 6 6 9 5 4 5
26 26 27 27 29 30 30 31 32 31 33 32 38 42 18 9 6 3 3 3 5 4 5 9 3 4 3 2 2 1 3 1 2 2 3 3 2 3 12 8 7 4 9 5 8 9 4
27 28 28 30 31 32 32 32 31 32 30 34 33 30 11 7 5 6 8 9 5 5 1 3 4 3 2 6 2 2 1 3 3 3 5 2 1 2 4 9 3 4 7 8 4 4 9
29 32 32 32 33 33 35 33 33 33 35 35 39 34 28 10 4 5 4 6 8 2 4 3 3 3 4 2 2 3 6 3 4 2 3 2 2 3 5 4 4 3 8 10 13 5 1
29 29 30 30 32 33 34 36 36 37 37 38 42 32 36 16 8 4 1 10 6 1 2 1 3 3 4 3 2 3 6 5 4 3 2 1 2 4 3 3 5 5 8 9 10 8 5
30 29 30 31 31 32 32 33 34 37 38 38 41 33 20 14 8 6 8 8 1 4 6 2 4 2 1 3 3 2 5 5 4 3 3 2 1 2 2 6 5 8 11 8 6 5 3
30 30 31 32 33 34 34 34 34 38 39 40 35 50 19 10 5 15 13 4 3 3 2 3 4 3 2 1 3 0 1 3 2 1 3 3 5 3 4 6 2 5 3 3 3 2 1
30 31 32 33 33 34 34 34 36 38 38 43 44 45 19 23 6 21 11 3 2 3 5 3 4 3 2 2 1 2 2 2 1 1 3 4 3 6 7 3 5 3 3 2 4 3 3
30 32 31 34 34 37 35 34 35 37 38 40 43 9 16 23 13 22 3 3 6 6 6 8 4 3 1 1 1 2 1 1 2 2 4 3 4 4 4 3 2 3 2 2 5 3 4
31 33 33 33 37 36 33 33 33 35 35 34 33 6 10 24 21 15 2 6 3 3 4 5 4 3 4 3 2 1 1 1 1 3 1 2 5 3 4 6 4 2 2 1 3 3 3
32 33 33 34 37 35 33 31 31 32 34 31 15 2 12 23 22 4 4 5 3 6 4 5 5 4 3 4 4 2 2 2 1 2 3 2 3 1 1 1 2 2 2 5 5 3 3
33 32 33 35 35 35 33 31 31 31 30 20 5 2 11 27 4 2 3 3 4 4 2 3 5 4 5 5 3 2 3 1 3 0 3 2 4 4 2 2 3 3 2 3 4 1 2
33 33 33 35 35 34 31 31 31 29 21 19 3 3 11 9 3 3 1 3 3 3 3 4 3 3 3 5 4 1 2 4 0 3 3 3 2 3 7 5 4 4 4 5 6 2 1
32 33 34 35 35 33 31 30 30 27 21 17 3 2 1 2 1 2 4 3 4 3 2 3 4 5 4 3 3 4 2 3 3 3 8 4 3 4 5 3 1 2 1 3 4 3 3
32 34 34 35 34 33 31 29 28 21 21 15 2 3 2 3 4 3 3 4 5 4 1 2 3 2 6 3 2 2 2 2 4 4 4 3 4 3 4 4 2 2 3 3 2 4 4
32 33 35 34 32 31 30 30 26 23 23 11 3 2 2 1 7 7 5 3 6 1 4 3 5 4 4 6 5 7 5 3 2 5 3 4 1 3 5 6 5 1 2 4 3 3 3
32 34 34 34 32 31 31 28 25 22 19 7 3 3 2 2 4 7 5 4 6 5 6 6 7 5 4 5 3 4 5 5 5 4 2 3 3 3 2 5 6 4 5 5 3 2 5
32 33 33 33 32 33 30 28 24 29 23 14 3 4 2 2 2 4 4 4 7 0 6 3 4 5 1 5 5 6 8 9 8 6 3 4 3 2 1 3 2 4 1 1 4 3 6
33 33 32 32 32 32 30 26 27 31 14 11 9 3 2 2 2 5 5 6 4 5 4 3 4 1 5 5 4 4 4 2 4 5 4 3 4 3 3 2 5 1 2 4 5 4 5
32 32 33 32 35 33 27 23 27 20 16 18 12 6 2 4 1 3 2 5 3 3 3 3 3 3 5 3 3 3 4 2 1 3 3 5 5 4 2 2 3 4 1 3 2 4 2
30 32 34 34 34 28 25 26 25 9 23 20 9 6 4 3 3 3 0 2 2 4 4 2 1 3 1 2 2 2 2 2 4 6 4 3 2 2 2 1 6 5 2 1 4 4 3
28 31 34 35 30 28 30 25 15 15 24 21 11 7 4 3 2 3 4 3 2 2 4 3 3 2 3 3 3 2 2 4 2 2 4 5 5 3 2 1 6 2 3 5 3 1 4
26 29 32 33 29 35 33 18 4 32 21 15 7 13 12 5 3 0 7 13 5 2 3 3 2 2 3 4 1 3 2 2 4 3 1 2 5 5 7 5 2 1 1 1 3 4 3
Wind_Direction
354 353 347 343 341 340 341 341 337 333 330 308 274 265 272 276 287 294 301 298 297 298 295 283 302 296 325 316 255 291 289 299 320 319 254 256 235 227 225 177 179 251 257 211 251 196 196
353 348 347 348 345 340 339 338 337 338 338 331 275 268 261 266 280 294 296 297 295 293 284 281 297 309 156 268 254 284 295 296 292 309 268 237 249 243 285 203 198 235 227 251 215 226 183
350 351 350 346 343 342 342 341 340 340 339 341 330 307 263 263 274 296 297 297 295 289 284 277 292 300 221 255 258 277 281 293 288 288 269 269 246 141 273 184 214 234 208 226 216 222 242
350 351 348 345 342 341 340 344 342 343 338 334 330 324 257 244 270 295 294 291 296 286 277 271 277 248 250 261 277 274 268 277 274 285 266 280 250 257 225 328 186 191 227 191 137 147 168
352 351 348 347 345 347 343 343 345 342 341 336 336 334 247 240 253 289 294 295 293 280 265 261 247 170 266 277 257 277 276 255 296 299 260 262 197 272 323 242 150 157 144 188 144 179 171
351 349 348 347 347 348 346 345 345 344 343 340 341 341 265 236 261 286 304 303 294 264 244 209 216 252 261 286 293 327 310 257 259 313 286 204 222 6 355 222 183 142 131 151 136 93 179
352 349 348 347 347 344 344 345 342 339 344 348 342 343 244 224 247 290 316 349 356 249 227 194 194 224 102 247 356 343 321 240 217 220 267 215 196 225 341 93 68 94 98 106 74 120 171
349 347 345 346 345 344 345 343 343 340 341 342 348 334 229 208 233 264 244 171 257 302 295 223 237 266 251 170 253 259 314 278 287 299 259 243 251 170 141 165 50 55 133 107 81 9 125
343 343 344 344 342 339 342 342 343 342 341 344 338 341 271 203 222 234 206 208 271 286 252 268 191 185 195 162 227 271 236 340 261 244 233 257 39 272 95 90 63 206 168 163 99 89 34
340 342 341 339 340 339 339 338 340 342 340 336 336 337 334 201 207 196 208 228 232 246 50 231 221 244 130 191 239 178 199 252 226 268 270 335 333 206 114 126 87 127 166 140 132 135 6
335 334 333 337 334 336 337 337 337 339 337 335 330 333 330 195 152 185 168 169 199 101 1 207 177 162 126 195 240 203 158 197 246 225 190 33 103 80 109 129 136 85 102 119 119 92 70
327 326 328 329 329 329 330 331 333 335 333 334 332 329 319 188 218 181 151 145 167 50 255 181 148 209 226 177 221 145 229 208 252 19 52 179 268 70 138 109 178 120 81 58 70 90 161
323 323 325 326 326 323 323 326 328 331 330 329 322 318 296 209 198 177 153 115 58 184 359 211 202 155 197 339 358 285 347 8 318 88 28 354 30 31 65 88 110 53 54 93 72 37 47
322 323 323 321 319 319 320 323 324 327 328 333 324 316 269 206 203 170 148 79 188 189 202 188 147 106 164 78 300 307 360 53 297 80 66 57 48 360 345 60 103 49 49 181 143 141 147
318 319 322 323 322 320 324 325 322 323 327 332 328 274 170 190 187 163 110 167 219 197 177 143 91 137 131 1 159 1 357 99 288 26 101 99 45 320 28 38 93 239 216 254 111 63 75
322 320 319 320 320 324 325 322 320 318 324 323 326 258 169 180 172 147 171 230 243 210 147 115 133 165 154 202 149 19 316 56 22 7 132 136 91 22 6 28 350 251 301 114 6 113 87
318 318 316 319 320 324 323 321 321 320 324 333 316 302 160 173 149 159 209 229 266 242 162 128 151 130 159 173 170 176 315 345 327 88 113 132 91 173 91 150 211 287 295 55 96 50 111
320 317 317 319 320 322 321 322 323 320 327 347 294 297 161 157 147 184 194 192 241 207 182 116 120 108 142 157 143 201 154 176 327 285 52 18 112 67 154 250 247 227 139 99 101 219 66
318 319 317 318 319 320 321 321 322 321 332 330 295 258 171 167 160 161 291 278 288 213 156 136 117 118 146 161 138 174 113 320 295 73 124 172 38 60 350 349 351 28 17 70 90 83 164
315 317 316 319 320 319 320 319 319 318 330 323 261 267 143 133 70 104 111 267 262 267 124 117 118 118 113 100 36 163 100 358 22 74 64 90 104 137 169 185 123 118 164 107 101 93 166
314 317 317 319 319 319 320 320 317 313 321 336 256 221 256 166 189 124 154 243 201 173 121 161 90 157 135 113 74 128 129 119 29 21 40 71 84 78 69 69 111 155 178 185 105 161 128
315 317 317 317 319 319 320 319 317 316 329 287 241 199 95 89 155 154 210 273 216 147 134 163 143 133 116 140 181 191 142 124 151 27 58 2 75 67 14 356 15 49 153 171 181 191 248
315 317 316 318 320 319 319 318 317 319 314 272 148 99 98 122 144 175 187 241 221 143 23 136 148 106 117 173 153 118 85 78 112 129 108 77 114 72 318 339 343 332 231 197 215 202 135
316 317 319 321 322 321 322 321 314 315 300 276 210 122 126 153 190 187 153 198 211 258 131 2 96 103 146 111 108 63 62 70 67 31 45 110 90 69 188 7 32 254 71 187 229 258 226
317 320 322 324 323 322 322 316 313 310 307 170 150 116 175 97 175 170 218 195 96 59 53 77 29 16 139 54 73 78 3 51 61 36 53 79 104 86 110 193 286 218 182 174 178 283 203
319 321 323 325 322 321 318 315 317 325 168 125 95 117 116 123 235 359 205 184 141 100 32 43 19 60 62 75 86 122 177 154 195 77 74 74 93 105 146 114 230 241 189 207 128 295 166
320 323 323 325 325 324 323 321 314 298 156 147 82 81 99 103 347 349 209 117 88 97 97 90 152 65 65 87 80 143 210 175 158 163 166 128 92 149 147 248 286 244 228 158 89 240 161
321 324 325 329 329 327 323 321 305 184 159 144 75 74 88 100 4 337 341 17 42 67 130 185 107 15 46 75 121 190 147 214 97 160 175 157 142 168 117 198 273 174 92 164 216 71 146
321 327 329 333 335 332 333 307 152 167 165 156 86 76 79 78 142 158 74 52 39 307 128 38 153 134 160 91 96 122 128 117 154 213 357 203 177 180 182 214 219 315 192 317 168 151 172
Height
844 841 838 834 830 827 821 816 812 806 802 794 794 794 796 797 796 796 793 793 791 790 787 784 784 785 784 785 778 772 772 770 769 768 767 768 767 766 759 756 759 766 753 749 747 743 749
842 840 836 832 828 825 820 815 811 805 799 792 789 790 791 792 793 792 791 790 788 785 785 782 783 784 784 782 772 771 769 768 767 766 766 766 764 762 760 755 756 755 753 750 746 744 752
843 838 835 831 827 824 818 812 809 804 800 793 790 789 785 788 788 788 789 788 787 783 783 780 781 781 782 776 770 769 767 766 766 765 765 763 762 763 755 751 749 751 754 750 748 751 755
841 837 834 830 827 822 817 812 808 802 798 793 787 784 780 780 782 784 785 785 783 782 780 778 779 779 777 768 768 766 765 764 763 764 763 761 761 758 751 742 742 749 752 753 751 753 761
839 836 833 829 825 819 815 811 805 800 796 790 784 778 776 776 777 777 781 783 780 780 778 778 778 778 773 767 767 765 763 763 763 761 760 760 759 755 744 741 740 744 747 750 751 750 760
839 836 832 828 823 819 814 811 805 800 794 787 780 776 774 772 773 774 776 778 776 778 776 776 777 780 769 765 765 763 762 763 761 760 757 757 755 757 757 744 737 739 753 754 752 748 753
839 835 830 827 823 818 814 809 803 798 792 784 778 774 768 769 772 771 773 776 780 779 773 768 765 763 761 764 763 762 761 761 761 759 756 749 751 750 753 741 740 736 745 753 755 754 756
837 833 829 824 820 816 811 806 801 795 789 782 778 772 764 766 767 768 770 773 774 772 767 762 762 762 760 761 763 761 761 761 758 755 750 750 747 741 744 745 743 741 745 756 756 751 751
835 830 825 820 817 813 808 804 800 793 788 782 776 773 767 763 766 767 766 767 771 771 769 758 757 758 759 762 760 758 760 759 757 753 749 747 743 739 736 739 744 738 737 743 743 754 753
831 825 821 818 814 810 806 801 796 791 786 780 774 768 767 763 767 763 763 764 771 770 787 759 755 756 758 758 757 757 759 759 752 748 745 744 742 738 741 741 748 742 736 739 748 751 761
828 825 821 817 812 808 802 798 793 788 783 778 771 764 763 760 759 762 761 762 769 769 797 756 755 753 754 757 753 751 755 755 747 745 747 746 740 744 738 742 746 743 740 744 747 755 758
827 823 818 814 810 806 802 797 792 786 780 773 768 764 758 758 759 759 760 763 770 780 778 758 751 751 753 753 752 751 750 753 746 743 744 745 741 740 743 739 737 740 743 743 751 758 766
824 819 816 811 807 803 798 793 788 782 775 767 761 760 762 756 752 756 759 765 784 776 754 758 752 749 749 749 748 747 746 745 746 747 745 756 743 741 742 743 743 745 752 756 760 765 764
821 816 812 808 803 798 794 789 783 776 769 760 751 744 747 751 752 753 759 769 778 751 754 742 744 747 750 750 748 747 748 750 743 748 759 752 746 752 746 749 750 756 755 756 758 760 768
816 812 807 803 798 793 788 783 777 770 763 757 751 733 738 744 750 752 759 765 753 747 739 739 743 748 753 750 752 749 749 749 746 747 752 763 753 753 752 749 752 755 765 749 760 765 780
813 808 803 798 793 789 784 779 773 765 760 755 746 733 733 739 746 752 759 749 744 736 731 734 744 747 757 754 753 751 747 745 744 743 745 750 760 758 755 753 756 754 748 751 761 763 761
807 804 799 793 788 784 780 775 770 762 757 750 739 730 732 737 745 753 747 749 738 732 726 731 742 750 751 755 756 753 750 745 743 744 747 751 758 760 759 765 759 755 752 755 760 774 771
802 797 794 789 784 780 775 770 766 760 755 750 745 737 732 735 745 745 743 741 732 730 726 726 731 739 750 755 755 751 747 746 745 742 749 751 768 775 763 759 760 758 755 758 768 772 807
799 794 790 784 780 775 771 766 762 758 755 751 745 739 733 735 735 737 741 737 733 729 726 726 729 731 741 749 751 748 747 746 743 746 748 751 775 800 778 764 757 753 752 763 773 786 795
793 788 784 779 774 770 767 762 758 754 753 751 746 736 732 737 738 740 743 746 737 727 726 724 726 730 737 743 744 751 747 745 743 745 746 751 772 771 790 765 766 762 759 762 771 804 783
788 784 778 773 769 765 761 758 755 751 750 750 743 735 732 733 738 744 748 740 732 727 723 724 727 728 736 746 746 748 749 748 748 748 753 757 773 783 775 772 768 764 763 766 778 772 774
783 779 773 768 764 760 757 753 749 747 745 743 737 732 734 737 734 744 745 739 729 724 724 730 729 729 735 745 745 752 747 747 748 755 758 766 784 776 784 776 773 764 766 770 769 767 766
777 773 767 761 758 755 750 747 743 741 742 735 729 731 733 736 736 738 741 740 730 725 728 729 733 737 736 738 742 746 748 752 752 756 762 768 781 788 791 787 778 773 768 768 765 766 767
771 767 762 756 751 747 744 740 737 734 733 732 727 729 732 734 737 733 737 741 728 727 731 737 734 734 743 742 744 747 752 753 758 763 759 769 779 796 806 792 801 764 763 763 765 763 766
767 761 757 752 747 743 739 735 732 726 721 723 725 727 730 735 733 732 738 740 734 738 738 739 741 742 741 744 751 751 760 753 761 767 765 762 775 789 805 814 780 761 768 769 766 760 766
763 757 752 748 742 737 733 730 725 719 719 722 726 727 729 734 740 747 737 734 735 743 745 745 744 742 743 752 755 760 769 766 769 766 767 770 768 779 781 797 774 767 762 760 760 774 766
759 753 747 742 736 731 727 724 718 718 719 722 726 727 730 742 749 748 738 733 736 742 751 748 745 744 746 760 760 768 781 771 775 774 773 770 771 772 778 798 783 767 761 761 774 774 768
755 750 743 736 731 725 720 717 714 715 720 721 729 728 729 744 750 748 746 740 737 739 745 750 746 747 754 758 761 769 775 777 776 774 777 777 784 773 779 780 792 762 762 766 769 770 769
751 747 740 734 728 721 713 709 709 714 719 722 728 730 733 738 751 750 748 747 747 747 747 753 752 752 754 768 771 775 772 783 781 777 776 775 774 782 781 776 766 767 766 768 768 770 770